Change the Weather History Date:

Friday, June 28, 2013

  Actual Average Record
Temperature  
Mean Temperature 79 °F -  
Max Temperature 90 °F 84 °F 108 °F (2012)
Min Temperature 70 °F 68 °F 60 °F (2006)
Cooling Degree Days 14    
Growing Degree Days 29 (Base 50)    
Moisture  
Dew Point 69 °F    
Average Humidity 72    
Maximum Humidity 97    
Minimum Humidity 48    
Precipitation  
Precipitation 0.00 in - - ()
Sea Level Pressure  
Sea Level Pressure 29.78 in    
Wind  
Wind Speed 5 mph (West)    
Max Wind Speed 13 mph    
Max Gust Speed -    
Visibility 10 miles    
Events      
Averages and records for this station are not official NWS values.
T = Trace of Precipitation, MM = Missing Value Source: NWS Daily Summary

Daily Weather History Graph

Daily Weather History Graph

Search for Another Location

Airport or City:

Trip Planner

Search our weather history database for the weather conditions in past years. The results will help you decide how hot, cold, wet, or windy it might be!

Date:

Astronomy

Jun. 28, 2013 Rise Set
Actual Time 5:31 AM CDT 8:06 PM CDT
Civil Twilight 5:01 AM CDT 8:37 PM CDT
Nautical Twilight 4:24 AM CDT 9:14 PM CDT
Astronomical Twilight 3:42 AM CDT 9:56 PM CDT
Moon 11:48 PM CDT (6/28) 11:26 AM CDT (6/28)
Length of Visible Light 15h 35m
Length of Day
14h 35m
Waning Gibbous, 66% of the Moon is Illuminated
Jun 28
Waning Gibbous
Jun 29
Last Quarter
Jul 8
New
Jul 15
First Quarter
Jul 22
Full

Hourly Weather History & Observations

Time (CDT) Temp. Heat Index Dew Point Humidity Pressure Visibility Wind Dir Wind Speed Gust Speed Precip Events Conditions
12:56 AM 73.9 °F - 70.9 °F 90% 29.86 in 10.0 mi Calm Calm - N/A   Clear
1:56 AM 72.0 °F - 70.0 °F 93% 29.86 in 9.0 mi SSE 3.5 mph - N/A   Clear
2:56 AM 72.0 °F - 70.0 °F 93% 29.85 in 10.0 mi SE 3.5 mph - N/A   Clear
3:56 AM 70.9 °F - 70.0 °F 97% 29.83 in 10.0 mi Calm Calm - N/A   Clear
4:56 AM 70.9 °F - 70.0 °F 97% 29.82 in 10.0 mi SSE 3.5 mph - N/A   Clear
5:56 AM 70.0 °F - 68.9 °F 96% 29.83 in 10.0 mi Calm Calm - N/A   Clear
6:56 AM 73.9 °F - 70.9 °F 90% 29.83 in 10.0 mi SSE 4.6 mph - N/A   Clear
7:56 AM 77.9 °F - 70.9 °F 79% 29.82 in 10.0 mi South 3.5 mph - N/A   Clear
8:56 AM 82.9 °F 88.0 °F 72.0 °F 69% 29.81 in 10.0 mi Variable 3.5 mph - N/A   Clear
9:56 AM 81.9 °F 86.0 °F 70.9 °F 69% 29.82 in 10.0 mi West 10.4 mph - N/A   Clear
10:56 AM 81.9 °F 86.0 °F 70.9 °F 69% 29.82 in 10.0 mi West 8.1 mph - N/A   Partly Cloudy
11:56 AM 86.9 °F 92.5 °F 70.9 °F 59% 29.79 in 8.0 mi WNW 11.5 mph - N/A   Clear
12:56 PM 86.0 °F 91.1 °F 70.9 °F 60% 29.78 in 10.0 mi NW 8.1 mph - N/A   Scattered Clouds
1:56 PM 86.0 °F 91.1 °F 70.9 °F 60% 29.76 in 10.0 mi North 11.5 mph - N/A   Scattered Clouds
2:56 PM 82.9 °F 87.0 °F 70.0 °F 65% 29.75 in 10.0 mi NW 4.6 mph - 0.00 in   Mostly Cloudy
3:56 PM 88.9 °F 91.8 °F 66.9 °F 48% 29.72 in 10.0 mi North 12.7 mph - N/A   Clear
4:56 PM 88.9 °F 91.8 °F 66.9 °F 48% 29.71 in 10.0 mi NNW 10.4 mph - N/A   Scattered Clouds
5:56 PM 88.9 °F 91.8 °F 66.9 °F 48% 29.70 in 10.0 mi NNW 10.4 mph - N/A   Partly Cloudy
6:56 PM 84.9 °F 88.2 °F 68.0 °F 57% 29.70 in 10.0 mi WNW 6.9 mph - N/A   Partly Cloudy
7:56 PM 83.8 °F 86.5 °F 66.9 °F 57% 29.71 in 10.0 mi WNW 8.1 mph - N/A   Clear
8:56 PM 81.0 °F 83.3 °F 66.9 °F 62% 29.72 in 10.0 mi WSW 5.8 mph - N/A   Scattered Clouds
9:56 PM 79.9 °F - 66.9 °F 64% 29.73 in 10.0 mi SW 5.8 mph - N/A   Partly Cloudy
10:56 PM 77.9 °F - 68.9 °F 74% 29.73 in 10.0 mi West 6.9 mph - N/A   Scattered Clouds
11:56 PM 77.9 °F - 68.9 °F 74% 29.74 in 10.0 mi WNW 6.9 mph - N/A   Mostly Cloudy